STARLINK-30138, 57605

Orbit data source: Space-Track

STARLINK-30138, 57605 is a payload satellite owned by SpaceX/Seattle (US) in LEO that was launched on Fri, 11 Aug 2023 UTC via an FALCON 9 launch vehicle from the Air Force Eastern Test Range (AFETR). Payload-class satellites include a variety of spacecraft equipped with specific instruments for various scientific and technological missions. These include communications satellites like Starlink; space stations such as the ISS; scientific satellites like the Hubble; Earth observation satellites from companies like Planet Labs, Umbra, and HawkEye 360; GPS; miniature CubeSats for education and research; and military/defense satellites.

Loading next visibility...
Identifier
57605, 2023-119D
Orbit
LEO
Country
Flag of USUS
Related business
Manufacturer
SpaceX/Seattle
Mission
Operational Commercial Communications
Bus & Motor
STARLINK V2M, Unknown motor
Mass
730 kg wet, ~700 kg dry
Launch date (UTC)
2023-08-11 (3 years ago)
Launch vehicle
FALCON 9
Launch site
Air Force Eastern Test Range (AFETR)
Object type
Payload
Rocket body
Debris
Shape & HBR
Box + 2 Pan, 17.7 m
Radar Cross Section
33.884 m², Large (>1 m²)

Expand to show TLE details & history
Last TLE update: 2 days ago

TLE from 2 days ago
0 STARLINK-30138
1 57605U 23119D   26171.40358081  .00000801  00000-0  38639-4 0  9997
2 57605  43.0032 221.6369 0001686 262.0696  97.9964 15.27580417158792
Epoch: 2026-06-20T09:41Z
TLE epoch observation values (Epoch: 2026-06-20T09:41:09.381Z)
Latitude
-0.00006°
Longitude
167.72904°
Altitude
482.985 km
Speed
7.626 km/s
True Right ascension
14h 46m 32s
True Declination
0° 00' 00"
Sunlit
Object was in full shadow at epoch
Visualization orbit readout
Latitude
Unknown
Longitude
Unknown
Altitude
Unknown
Speed
Unknown
Apparent Right ascension
Unknown
Apparent Declination
Unknown
Sunlit
N/A
Visualization observer readout
Local Sidereal Time
23:20:15
Azimuth
Unknown
Elevation
Unknown
Doppler factor
Unknown
Orbital elements
Apogee altitude
486.15 km
Perigee altitude
483.835 km
Semi-major axis
6,863.129 km
Eccentricity
0.00017
Inclination
43.0032°
RAAN
221.6369°
Arg. of periapsis
262.0696°
True anomaly
98.01553°
Mean anomaly
97.9964°
Eccentric anomaly
98.00597°
Mean motion
3.81733 °/min
Orbital period
94.31 mins
BSTAR
0.000038639
Loading maneuver chart data...
Computing Atmospheric mass density...
Loading historical data...
Loading historical data...
Loading historical data...
Loading historical data...
Loading historical data...
Loading historical data...
Loading historical data...

Documentation

Showing up to 5 results
|